Flag for Iran Weather past 2 weeks in Rafsanjan, Iran

Now
37 °F

Clear.


Feels Like: 37 °F
Forecast: 32 / 62 °F
Wind: No wind

Location: Kerman Airport

Current Time: Feb 1, 2015 at 11:53:52 PM

Latest Report: Feb 1, 2015 at 11:30 PM


Visibility: 10 mi

Pressure: 30.12 "Hg

Humidity: 30%

Dew point: 9 °F

Location of RafsanjanLocation

Historic Weather in Rafsanjan — Graph

°F

Rafsanjan temperature yesterday

Maximum temperature yesterday: 66 °F (at 1:00 PM)
Minimum temperature yesterday: 43 °F (at 3:20 AM)
Average temperature yesterday: 56 °F

Past Weeks' High & Low Weather Summary

 TemperatureHumidityPressure
High72 °F (Jan 29, 3:30 PM)100% (Jan 18, 3:30 AM)30.36 "Hg (Jan 18, 3:30 AM)
Low19 °F (Jan 21, 6:30 AM)8% (Jan 29, 3:30 PM)29.92 "Hg (Jan 19, 3:30 PM)
Average44 °F52%30.18 "Hg
* Reported Jan 17 10:30 PM — Feb 1 10:30 PM, Rafsanjan, Weather by CustomWeather, © 2014

Note: Actual official high and low records may vary slightly from our data, if they occured in-between our weather recording intervals... More about our weather records

Advertising

Rafsanjan weather history for previous 24 hours

 ConditionsComfort  
Time TempWeatherWind HumidityBarometerVisibility
10:30 PM
Feb 1
41 °FClear.No wind24%30.12 "Hg10 mi
9:30 PM46 °FClear.5 mph18%30.09 "Hg10 mi
8:30 PM48 °FClear.7 mph17%30.09 "Hg10 mi
7:30 PM48 °FClear.7 mph18%30.09 "Hg10 mi
6:30 PM52 °FClear.12 mph17%30.07 "Hg10 mi
5:30 PM55 °FPassing clouds.12 mph15%30.07 "HgN/A
5:00 PM59 °FScattered clouds.14 mph14%30.07 "HgN/A
4:30 PM61 °FScattered clouds.14 mph13%30.04 "HgN/A
3:30 PM61 °FPartly sunny.14 mph17%30.04 "HgN/A
2:30 PM63 °FScattered clouds.14 mph13%30.04 "HgN/A
1:30 PM63 °FPassing clouds.14 mph10%30.07 "HgN/A
12:30 PM61 °FSunny.9 mph12%30.09 "Hg10 mi
11:30 AM59 °FSunny.7 mph23%30.12 "Hg10 mi
10:30 AM55 °FSunny.12 mph31%30.18 "Hg10 mi
9:30 AM55 °FSunny.7 mph33%30.18 "Hg10 mi
9:00 AM55 °FSunny.No wind38%30.18 "Hg10 mi
8:30 AM50 °FSunny.No wind43%30.18 "Hg10 mi
7:30 AM41 °FSunny.7 mph61%30.18 "Hg10 mi
6:30 AM39 °FClear.9 mph65%30.15 "Hg10 mi
5:30 AM39 °FClear.7 mph70%30.15 "Hg10 mi
4:30 AM43 °FClear.No wind66%30.15 "Hg10 mi
3:30 AM43 °FClear.14 mph66%30.15 "Hg10 mi
2:30 AM45 °FClear.14 mph61%30.15 "Hg10 mi
1:30 AM46 °FClear.14 mph57%30.15 "Hg10 mi
12:30 AM45 °FClear.12 mph61%30.18 "Hg10 mi
11:30 PM
Jan 31
50 °FClear.16 mph50%30.15 "Hg10 mi
Weather by CustomWeather, © 2014

See weather overviewHow to use our weather pages